Date String (YYYY-MM-DD hh:mm:ss) UTC,Instrument flags,Ambient pressure (hPa),Sample flow (lpm),Bypass flow (lpm),Sample temperature (°C),Ambient temperature (°C),ASC tube jacket temperature (°C),LED temperature (°C),Box temperature (°C),Sample RH (%),Span deviation,Mass concentration (μg/m³),Mass concentration (μg/m³),Mass concentration (μg/m³)
DateTimeUTC,F1_M11,P_M11,Q1_M11,Q2_M11,T1_M11,T2_M11,T3_M11,T4_M11,T5_M11,U1_M11,ZSPAN_M11,X0_M11,X2_M11,X1_M11
2021-08-29 17:00:00,,0832.5,5.01,0.00,29.7,27.9,00.0,38.9,31.4,29.8,0001.3,0022.91,0013.17,0011.99
2021-08-29 17:01:00,,0832.5,5.00,0.00,29.7,28.1,00.0,38.9,31.5,29.5,0001.2,0022.41,0013.17,0012.01
2021-08-29 17:02:00,,0832.5,5.00,0.00,29.7,28.4,00.0,38.9,31.5,29.7,0001.1,0022.38,0013.17,0012.00
2021-08-29 17:03:00,,0832.4,5.00,0.00,29.8,28.5,00.0,38.9,31.6,29.6,0001.1,0022.78,0013.23,0012.02
2021-08-29 17:04:00,,0832.4,5.00,0.00,29.8,28.7,00.0,38.9,31.6,30.1,0001.2,0023.87,0013.22,0012.01
2021-08-29 17:05:00,,0832.4,5.00,0.00,29.8,28.8,00.0,38.9,31.7,29.6,0001.3,0023.99,0013.25,0012.02
2021-08-29 17:06:00,,0832.4,5.00,0.00,29.9,28.9,00.0,38.9,31.8,29.2,0001.5,0024.20,0013.33,0012.05
2021-08-29 17:07:00,,0832.4,5.00,0.00,29.9,29.0,00.0,38.9,31.8,29.1,0001.6,0024.19,0013.37,0012.08
2021-08-29 17:08:00,,0832.5,4.99,0.00,30.0,29.1,00.0,38.9,31.8,29.3,0001.8,0025.51,0013.35,0012.06
2021-08-29 17:09:00,,0832.4,4.99,0.00,30.0,29.2,00.0,39.0,31.9,29.2,0001.8,0025.97,0013.37,0012.06
2021-08-29 17:10:00,,0832.5,5.00,0.00,30.0,29.2,00.0,39.0,31.9,29.1,0001.7,0025.96,0013.37,0012.09
2021-08-29 17:11:00,,0832.5,5.01,0.00,30.1,29.2,00.0,39.0,31.9,28.8,0001.7,0025.27,0013.41,0012.13
2021-08-29 17:12:00,,0832.5,5.01,0.00,30.0,27.8,00.0,39.0,31.6,28.7,0001.6,0025.34,0013.48,0012.18
2021-08-29 17:13:00,,0832.5,4.99,0.00,29.9,26.4,00.0,39.0,31.2,28.9,0001.6,0025.93,0013.53,0012.24
2021-08-29 17:14:00,,0832.5,5.01,0.00,29.8,26.3,00.0,39.0,31.1,29.1,0001.7,0025.03,0013.50,0012.28
2021-08-29 17:15:00,,0832.5,5.00,0.00,29.7,26.7,00.0,38.9,31.2,29.5,0001.5,0023.59,0013.54,0012.33
2021-08-29 17:16:00,,0832.5,5.00,0.00,29.7,27.2,00.0,38.9,31.3,29.4,0001.4,0023.44,0013.58,0012.39
2021-08-29 17:17:00,,0832.5,5.00,0.00,29.7,27.6,00.0,38.9,31.4,29.3,0001.1,0022.66,0013.56,0012.41
2021-08-29 17:18:00,,0832.5,5.02,0.00,29.7,27.9,00.0,38.8,31.4,29.3,0001.1,0022.07,0013.56,0012.43
2021-08-29 17:19:00,,0832.5,4.99,0.00,29.7,28.1,00.0,38.8,31.5,29.4,0001.0,0021.04,0013.62,0012.47
2021-08-29 17:20:00,,0832.5,5.00,0.00,29.7,28.4,00.0,38.8,31.5,29.2,0001.1,0020.62,0013.60,0012.51
2021-08-29 17:21:00,,0832.5,5.01,0.00,29.8,28.6,00.0,38.8,31.6,29.3,0001.1,0020.40,0013.58,0012.51
2021-08-29 17:22:00,,0832.5,5.00,0.00,29.8,28.7,00.0,38.9,31.7,29.5,0001.0,0020.33,0013.57,0012.53
2021-08-29 17:23:00,,0832.5,5.01,0.00,29.9,28.9,00.0,38.9,31.7,29.3,0001.2,0020.57,0013.58,0012.53
2021-08-29 17:24:00,,0832.5,5.00,0.00,29.9,29.0,00.0,38.9,31.8,29.4,0001.2,0020.44,0013.58,0012.51
2021-08-29 17:25:00,,0832.5,5.01,0.00,29.9,29.0,00.0,38.9,31.8,29.4,0001.2,0020.23,0013.58,0012.50
2021-08-29 17:26:00,,0832.5,4.99,0.00,30.0,29.1,00.0,38.9,31.8,29.3,0001.5,0020.56,0013.60,0012.50
2021-08-29 17:27:00,,0832.5,4.99,0.00,30.0,29.1,00.0,39.0,31.9,29.2,0001.6,0021.07,0013.61,0012.51
2021-08-29 17:28:00,,0832.5,5.01,0.00,30.0,27.7,00.0,38.9,31.5,29.1,0001.9,0021.67,0013.66,0012.50
2021-08-29 17:29:00,,0832.5,5.01,0.00,29.8,26.3,00.0,38.9,31.1,29.4,0001.9,0022.34,0013.74,0012.54
2021-08-29 17:30:00,,0832.4,5.01,0.00,29.7,26.2,00.0,38.9,31.1,29.7,0001.9,0022.16,0013.79,0012.56
2021-08-29 17:31:00,,0832.4,5.00,0.00,29.6,26.6,00.0,38.9,31.1,30.2,0001.8,0021.82,0013.82,0012.56
2021-08-29 17:32:00,,0832.5,5.00,0.00,29.6,27.1,00.0,38.8,31.2,30.1,0001.8,0021.92,0013.85,0012.55
2021-08-29 17:33:00,,0832.5,4.99,0.00,29.6,27.5,00.0,38.8,31.3,30.3,0001.9,0023.01,0013.90,0012.55
2021-08-29 17:34:00,,0832.6,5.02,0.00,29.6,27.8,00.0,38.8,31.4,30.4,0001.9,0023.53,0013.90,0012.55
2021-08-29 17:35:00,,0832.5,4.99,0.00,29.7,28.1,00.0,38.8,31.4,29.6,0002.0,0023.52,0013.90,0012.57
2021-08-29 17:36:00,,0832.6,4.99,0.00,29.7,28.3,00.0,38.8,31.5,29.7,0001.9,0024.07,0013.92,0012.59
2021-08-29 17:37:00,,0832.5,5.00,0.00,29.7,28.5,00.0,38.8,31.5,29.5,0001.9,0024.04,0013.91,0012.59
2021-08-29 17:38:00,,0832.5,5.00,0.00,29.8,28.7,00.0,38.8,31.6,29.4,0001.7,0025.69,0013.87,0012.58
2021-08-29 17:39:00,,0832.5,5.01,0.00,29.8,28.8,00.0,38.8,31.7,29.7,0001.6,0025.88,0013.86,0012.59
2021-08-29 17:40:00,,0832.5,4.99,0.00,29.8,28.9,00.0,38.8,31.7,29.7,0001.6,0025.65,0013.81,0012.58
2021-08-29 17:41:00,,0832.5,5.00,0.00,29.9,29.0,00.0,38.9,31.8,29.9,0001.7,0026.01,0013.75,0012.57
2021-08-29 17:42:00,,0832.6,4.99,0.00,29.9,29.1,00.0,38.9,31.8,29.7,0001.7,0026.94,0013.75,0012.55
2021-08-29 17:43:00,,0832.6,5.00,0.00,30.0,29.1,00.0,38.9,31.8,29.7,0001.6,0027.64,0013.78,0012.57
2021-08-29 17:44:00,,0832.6,4.99,0.00,29.9,27.7,00.0,38.9,31.5,29.6,0001.7,0026.85,0013.77,0012.58
2021-08-29 17:45:00,,0832.6,5.00,0.00,29.8,26.3,00.0,38.9,31.1,29.6,0001.5,0026.33,0013.75,0012.59
2021-08-29 17:46:00,,0832.5,5.00,0.00,29.6,26.2,00.0,38.9,31.0,29.9,0001.3,0026.03,0013.78,0012.60
2021-08-29 17:47:00,,0832.5,5.00,0.00,29.6,26.6,00.0,38.8,31.1,30.2,0001.3,0027.13,0013.73,0012.60
2021-08-29 17:48:00,,0832.5,4.99,0.00,29.6,27.0,00.0,38.8,31.2,30.4,0001.1,0027.46,0013.73,0012.60
2021-08-29 17:49:00,,0832.5,5.01,0.00,29.6,27.5,00.0,38.8,31.3,30.2,0001.1,0026.34,0013.78,0012.59
2021-08-29 17:50:00,,0832.4,4.99,0.00,29.6,27.8,00.0,38.7,31.3,29.9,0001.1,0026.10,0013.80,0012.61
2021-08-29 17:51:00,,0832.5,5.01,0.00,29.6,28.1,00.0,38.7,31.4,29.9,0001.0,0025.65,0013.77,0012.61
2021-08-29 17:52:00,,0832.4,4.99,0.00,29.6,28.3,00.0,38.7,31.4,30.0,0001.0,0025.19,0013.77,0012.63
2021-08-29 17:53:00,,0832.4,5.00,0.00,29.7,28.5,00.0,38.7,31.5,29.9,0000.9,0024.82,0013.79,0012.67
2021-08-29 17:54:00,,0832.4,5.00,0.00,29.7,28.7,00.0,38.8,31.6,29.7,0001.1,0023.77,0013.79,0012.71
2021-08-29 17:55:00,,0832.4,5.00,0.00,29.8,28.8,00.0,38.8,31.6,29.5,0001.2,0023.60,0013.78,0012.73
2021-08-29 17:56:00,,0832.4,4.99,0.00,29.8,28.9,00.0,38.8,31.7,29.6,0001.3,0023.57,0013.83,0012.75
2021-08-29 17:57:00,,0832.4,4.99,0.00,29.8,28.9,00.0,38.8,31.8,29.6,0001.5,0023.67,0013.86,0012.80
2021-08-29 17:58:00,,0832.4,5.00,0.00,29.9,28.9,00.0,38.8,31.7,29.7,0001.6,0023.08,0013.93,0012.81
2021-08-29 17:59:00,,0832.4,5.00,0.00,29.8,27.5,00.0,38.8,31.3,29.8,0001.7,0023.25,0013.97,0012.85
